RH
22 18 19 18 18 20 20 22 22 18 17 20 20 18 15 14 14 15 16 14 17 22 24 28 31 33 36 42 50 49 32 38 51 67 66 52 39 39 41 40 39 49 38 38
20 19 17 20 21 22 22 23 22 19 17 20 19 18 14 13 13 14 19 24 27 30 31 34 40 48 53 49 46 52 62 48 33 60 66 59 42 56 58 56 51 54 63 45
23 16 22 22 21 22 19 23 23 23 19 17 16 18 13 11 12 20 28 29 31 34 39 47 52 56 62 66 46 33 33 40 33 28 57 74 83 79 75 65 69 67 68 63
17 22 24 22 20 19 26 20 24 25 25 23 15 23 15 11 22 27 29 32 35 39 43 51 53 56 58 76 81 50 43 38 41 38 50 64 80 81 71 74 77 80 99 91
27 28 27 25 29 28 24 27 26 22 22 20 16 17 13 15 28 30 25 31 35 38 40 41 44 46 49 67 91 78 55 58 55 47 46 65 78 83 79 75 80 88 99 96
26 24 25 27 26 29 24 22 20 17 20 25 24 26 16 25 34 26 23 26 30 32 34 33 33 38 43 51 82 76 61 68 66 55 51 59 62 92 83 81 88 96 99 91
17 20 30 26 26 23 20 19 18 14 20 19 17 19 14 24 30 26 26 25 24 24 25 27 30 32 35 46 64 95 85 80 75 93 80 74 87 92 93 84 91 96 99 100
18 21 28 21 28 25 18 24 21 23 16 17 13 18 17 29 30 29 28 28 26 24 24 22 23 28 30 36 50 94 96 99 98 99 99 100 99 99 100 92 97 97 100 98
18 19 20 20 22 17 14 19 21 27 19 24 17 16 29 28 30 30 29 29 28 25 23 23 23 25 28 31 44 89 91 98 99 100 99 100 100 99 99 97 99 100 100 100
23 19 13 17 23 13 18 14 20 24 45 37 16 13 11 35 34 33 32 30 28 26 26 24 23 25 27 33 42 76 91 98 100 100 100 100 100 100 100 100 100 100 100 100
24 25 19 21 13 13 12 14 15 19 26 32 35 20 27 32 32 35 31 30 25 27 26 27 27 26 27 33 46 64 97 99 99 100 100 100 99 100 100 100 100 100 97 96
31 31 30 18 14 17 28 31 23 28 27 28 40 46 20 25 28 29 28 24 19 27 28 26 26 28 29 35 53 67 97 100 98 99 100 100 100 100 99 99 96 99 98 93
33 27 29 11 20 27 29 29 30 31 32 40 53 38 21 20 21 21 19 17 19 29 28 26 26 29 33 38 54 70 86 96 100 100 99 94 98 87 84 77 68 58 50 43
44 38 36 27 20 20 26 21 21 25 36 34 31 27 20 18 18 16 17 19 26 30 26 25 27 30 36 43 61 74 90 99 100 100 100 100 93 88 81 76 71 66 65 64
36 38 30 26 25 28 31 32 32 33 30 36 33 28 22 20 20 22 24 26 30 26 25 28 30 36 41 47 62 88 98 99 100 100 100 100 100 98 98 85 76 69 63 58
34 50 41 43 31 31 33 29 28 29 29 29 29 30 21 22 22 23 25 31 28 26 28 32 37 42 47 54 69 90 98 100 100 100 100 100 96 89 85 96 97 98 94 78
42 47 49 51 33 36 46 29 26 25 24 25 34 29 23 24 21 22 35 29 29 29 30 33 42 51 54 63 84 98 100 100 100 100 100 100 100 100 100 99 99 96 87 83
45 43 46 63 45 66 26 21 23 29 26 24 24 24 25 24 22 21 28 30 31 32 35 39 48 56 62 78 96 100 100 100 100 100 100 100 100 100 100 98 95 87 83 87
42 46 61 74 56 39 29 22 21 26 29 23 28 25 23 24 24 30 34 33 33 34 38 40 52 60 68 97 96 100 100 100 100 100 99 100 100 99 99 98 97 91 74 76
35 48 56 65 80 68 24 22 22 23 40 22 21 22 30 34 41 31 39 36 34 33 38 45 62 69 88 99 92 100 100 100 100 100 99 98 98 98 98 97 97 97 95 47
47 54 75 64 76 55 28 25 24 46 33 23 26 29 32 38 37 40 41 38 36 38 39 60 74 92 93 100 100 100 100 100 100 99 99 99 99 98 98 97 94 54 35 60
42 52 55 48 64 72 24 27 41 37 43 42 37 35 37 36 36 38 38 37 39 42 46 81 86 83 91 99 100 100 100 100 98 98 98 97 97 97 84 41 22 18 19 23
52 41 46 46 42 31 35 38 39 39 40 49 60 58 52 46 43 40 42 43 46 50 72 89 99 84 98 100 100 100 98 98 97 97 97 96 92 38 22 19 29 26 31 56
37 37 48 52 42 39 44 58 59 80 91 79 71 59 63 71 49 46 47 47 47 70 91 98 98 98 99 100 100 97 97 97 97 96 93 34 44 81 63 29 27 29 48 74
50 49 52 54 45 66 60 66 73 84 95 95 91 99 85 68 77 57 56 55 74 96 86 98 98 99 100 98 97 97 97 97 96 66 32 51 60 36 41 39 42 31 33 36
45 56 80 88 84 98 91 85 89 97 97 96 95 97 98 95 86 71 77 86 94 100 99 100 99 100 98 97 97 97 97 95 42 61 73 88 96 97 96 70 41 38 40 42
Wind_Speed
1 8 9 13 11 10 11 15 18 18 15 16 19 24 23 27 23 17 23 20 17 19 18 17 20 19 19 17 16 15 15 23 28 29 31 39 51 56 55 54 53 49 50 49
7 10 8 4 5 9 11 16 18 16 15 15 21 25 22 21 18 19 16 16 17 19 21 21 22 23 24 22 20 20 20 21 21 29 33 38 41 43 50 48 50 48 46 52
10 10 8 11 12 13 14 12 15 19 19 19 20 20 19 12 10 14 15 15 16 19 22 24 27 27 26 25 24 23 24 26 26 24 34 36 35 36 34 43 42 43 45 47
4 6 4 8 11 12 15 13 14 16 17 16 15 21 19 12 13 12 14 17 20 23 24 24 29 31 31 30 27 26 25 26 27 22 24 37 38 35 37 28 27 29 31 39
5 5 8 10 6 8 13 11 14 17 18 19 17 10 13 4 5 8 13 15 18 20 23 27 29 30 30 31 30 29 28 25 27 23 20 31 38 36 26 24 24 25 30 31
4 3 4 6 9 5 9 11 16 17 13 11 2 5 9 3 2 5 9 14 17 21 24 26 28 29 31 34 33 34 32 29 28 25 21 26 31 32 25 22 24 24 28 24
9 2 2 10 7 2 12 12 10 6 6 10 3 13 13 6 4 5 9 15 18 22 25 27 31 34 36 37 37 36 37 31 29 25 20 15 20 25 22 22 22 21 21 24
5 4 5 7 5 6 10 7 5 7 9 17 18 10 5 9 6 4 7 12 18 22 25 28 30 31 34 36 38 34 39 34 25 20 16 9 11 14 18 22 23 24 23 26
5 4 0 2 5 5 3 7 8 12 18 16 13 18 8 10 6 3 9 15 21 24 27 28 30 31 33 34 36 32 35 32 23 18 13 13 12 16 16 18 20 20 21 22
2 8 4 5 8 11 10 10 7 9 6 11 13 21 18 11 4 4 10 17 23 25 29 30 29 30 31 32 33 30 31 28 22 15 9 6 5 7 8 11 15 21 25 26
6 3 1 3 7 10 12 13 12 10 12 16 17 15 4 3 1 6 13 21 28 30 31 29 30 30 31 31 30 28 27 24 21 12 3 2 5 9 9 13 18 19 20 16
5 5 9 16 15 6 10 13 11 9 14 10 12 20 10 7 10 17 22 23 29 26 26 26 28 29 29 30 30 27 25 21 15 9 8 10 9 12 13 16 15 13 14 16
6 2 9 7 6 6 5 2 4 9 13 21 16 18 3 20 29 36 42 42 32 24 23 26 27 28 29 30 29 28 24 22 15 5 3 5 7 4 6 13 18 19 19 20
3 8 12 13 19 18 25 23 21 20 15 22 26 31 34 27 29 37 37 35 25 20 19 22 25 27 29 31 30 30 23 23 18 11 4 4 6 9 12 15 15 17 16 16
5 11 16 19 20 22 25 25 21 23 27 26 31 34 31 32 28 34 30 25 14 15 17 20 24 27 30 33 32 33 24 16 21 14 8 6 7 9 12 15 17 18 16 14
5 10 15 20 20 21 25 24 24 27 28 28 29 32 26 30 26 24 22 12 12 15 17 21 24 27 30 32 33 32 24 19 19 14 8 8 8 9 11 10 14 16 17 15
9 6 8 9 10 17 16 12 11 19 20 20 20 21 21 23 23 23 15 14 12 17 20 23 24 25 27 29 28 26 18 12 5 4 9 12 14 15 16 14 15 15 16 15
10 11 8 11 15 10 2 11 19 20 22 22 20 19 19 23 32 26 12 9 14 19 21 23 22 23 26 25 22 23 16 6 5 9 11 12 13 16 16 16 17 19 19 20
19 12 7 5 9 21 17 11 13 17 19 16 19 18 25 26 18 13 3 12 18 22 21 21 21 21 22 20 22 21 13 7 6 7 11 13 14 15 15 18 18 18 18 17
11 13 11 9 12 12 9 14 18 16 20 23 14 12 10 12 9 7 14 26 27 25 21 21 19 18 18 17 21 16 8 4 7 13 15 15 13 14 14 15 14 15 16 17
9 9 14 13 14 14 17 18 17 14 15 17 18 18 16 14 19 24 27 29 25 22 21 16 15 15 18 15 15 8 3 9 15 17 17 15 14 15 16 16 15 16 16 16
6 5 8 11 14 15 5 10 16 21 34 39 33 28 29 30 32 30 31 27 24 20 16 11 11 16 18 14 9 3 11 14 16 16 17 18 18 18 17 16 15 17 17 18
5 9 10 9 11 32 43 40 47 45 41 42 41 42 38 36 32 25 23 19 15 13 10 8 7 14 12 7 2 13 16 15 16 17 19 18 15 17 17 19 18 20 20 19
8 15 11 18 15 32 42 45 45 43 43 39 40 41 36 33 29 23 18 15 12 8 6 5 10 9 4 3 11 14 15 15 16 18 18 18 19 19 20 22 21 22 22 19
16 16 15 20 30 46 38 43 45 47 44 42 40 33 34 33 27 24 18 16 5 2 6 6 4 4 10 14 15 15 15 15 16 16 18 20 19 21 22 23 23 24 24 21
6 9 8 15 37 27 44 52 52 51 45 37 33 30 27 26 23 18 10 4 2 0 5 3 5 14 17 17 17 16 14 12 14 16 17 17 16 15 16 18 22 23 23 22
Wind_Direction
193 261 270 324 329 316 295 291 295 299 320 308 302 300 305 307 301 298 314 322 352 338 344 348 350 347 340 336 332 320 294 270 266 256 251 252 250 252 251 249 250 247 247 247
236 265 352 356 316 301 298 297 293 308 304 311 302 296 294 292 302 312 15 6 356 350 350 354 356 353 348 341 331 327 323 314 285 259 255 256 261 253 251 249 250 248 243 245
281 298 323 299 298 299 293 291 306 308 308 288 291 298 294 318 337 47 38 16 8 5 360 358 358 357 355 348 337 330 325 321 314 286 256 252 253 249 244 245 242 246 243 246
326 7 329 308 298 300 299 329 309 300 306 301 321 296 298 314 62 50 27 15 10 4 359 358 356 355 355 349 341 331 322 315 313 305 263 245 244 246 246 246 246 237 235 239
79 335 335 304 2 328 302 317 298 295 289 293 287 264 293 26 22 21 17 17 11 8 5 0 356 354 350 349 346 339 332 327 319 306 287 258 246 247 253 249 243 238 231 248
25 326 5 336 306 309 319 293 293 280 270 271 343 288 301 346 22 47 27 26 15 8 4 360 358 355 354 354 348 343 337 337 327 315 296 264 255 243 246 249 242 232 243 253
319 24 122 8 306 250 336 318 307 276 233 274 250 296 271 135 120 46 20 14 9 7 2 356 356 357 356 351 350 343 343 342 337 335 314 279 254 245 250 247 244 238 229 225
322 208 13 357 9 323 306 309 292 296 301 301 302 266 320 100 125 39 11 5 1 1 359 354 351 349 351 352 348 343 344 341 341 332 317 289 234 241 233 234 231 224 216 224
323 240 264 321 322 293 10 263 353 285 274 270 265 268 166 175 171 1 1 359 358 353 351 348 346 347 345 345 348 341 343 336 336 330 319 300 257 235 231 232 225 222 201 194
52 289 243 301 289 249 247 326 271 214 276 275 276 293 293 173 213 330 355 352 345 342 341 342 343 344 341 340 343 342 342 335 328 326 329 320 303 262 241 211 176 154 141 139
332 250 171 262 241 298 284 258 247 272 269 271 282 274 87 73 69 353 341 332 338 335 337 338 339 339 339 338 339 342 338 335 331 314 332 64 97 115 128 129 134 140 141 142
13 304 283 282 290 291 276 265 256 254 277 276 280 269 320 237 264 307 305 315 327 324 327 332 334 336 337 338 339 340 330 332 338 336 55 64 85 102 110 121 115 120 130 133
4 220 306 283 155 193 256 240 300 284 280 267 268 261 286 307 293 300 304 311 317 320 325 330 335 338 340 339 337 334 326 323 311 306 76 91 84 97 105 115 124 131 122 119
295 255 255 275 296 307 292 283 291 297 281 281 267 282 283 287 290 296 303 304 310 312 324 330 336 339 340 341 338 334 324 306 302 254 214 196 222 138 136 141 135 131 108 103
255 268 275 282 291 291 286 291 294 281 273 267 277 278 284 290 294 299 301 297 300 311 326 337 341 341 342 343 341 339 335 297 298 256 241 199 152 154 115 114 116 109 112 93
282 278 301 290 284 278 285 290 286 275 275 274 275 279 284 296 301 303 292 287 299 323 333 340 343 344 344 345 343 349 338 316 291 262 223 174 155 141 148 117 108 106 109 104
276 278 308 283 293 296 287 280 292 290 283 289 291 299 306 302 302 305 309 302 325 329 334 340 339 341 344 345 343 343 327 317 291 165 140 143 146 135 131 120 105 93 87 89
249 253 263 285 295 268 232 300 291 281 281 278 279 287 304 299 302 299 284 327 330 328 330 334 336 337 342 342 347 335 322 298 174 153 142 140 135 122 114 105 91 93 93 92
224 246 257 267 274 285 288 274 287 291 286 296 291 297 295 304 290 260 156 341 331 325 324 326 328 332 338 343 343 327 309 266 215 147 135 127 124 115 106 96 90 84 82 72
218 224 240 254 286 282 305 319 301 289 278 279 288 298 299 310 288 288 332 329 323 320 318 320 325 333 343 347 347 324 293 224 154 132 126 120 111 100 92 92 96 83 68 70
219 225 235 252 261 270 279 287 297 265 284 315 304 289 281 276 281 291 301 312 314 312 312 317 330 341 347 336 332 306 183 127 122 123 122 118 116 107 95 86 76 80 81 75
255 263 260 266 274 276 277 292 278 293 306 304 301 293 286 285 282 287 295 301 310 308 309 319 339 340 344 335 312 183 134 130 131 124 115 107 99 91 89 91 92 86 81 73
256 232 291 280 276 297 301 291 287 283 275 270 271 278 285 285 283 286 291 293 300 307 312 336 345 345 341 335 174 145 132 133 123 112 102 93 91 100 94 91 84 78 72 66
287 280 266 289 275 291 303 306 302 299 292 287 270 262 260 271 277 279 280 289 293 303 325 330 334 0 17 126 147 131 129 126 117 101 94 100 92 83 80 80 75 72 65 58
287 300 284 290 296 314 307 311 308 302 294 288 287 289 265 252 264 270 274 279 265 268 322 337 12 112 129 135 128 123 121 112 97 104 101 91 85 80 78 78 70 67 64 59
263 331 315 306 313 312 302 308 310 306 300 289 279 276 278 259 249 258 261 235 198 143 334 39 132 139 131 127 119 116 109 100 112 101 92 89 85 80 76 72 71 66 60 53